Vorticity
5 5 4 4 1 -0 -2 -1 0 2 3 4 3 4 4 5 7 8 8 8 7 6 6 5 7 8 10 11 9 8 7 7 10 13 14 13 8 6 4 1 -3 -6 -7 -5 0 1 -2 -7 -3 3 7 9 7 5 3 0 -1 -1 -1 0 2 4 8 12 15 18 19 19 19
6 6 5 5 4 2 0 -1 -1 -0 1 2 3 3 4 4 5 6 7 8 8 7 6 5 5 6 8 10 10 9 7 6 8 11 13 13 11 8 5 2 -3 -6 -8 -8 -4 -0 1 -2 -0 4 7 9 7 5 3 1 -0 -2 -2 -4 -3 2 9 17 22 24 25 27 28
8 8 7 6 5 4 2 1 0 0 0 1 2 2 3 4 4 5 6 6 6 7 6 6 5 5 6 8 9 10 9 7 8 10 12 13 13 12 9 4 -1 -5 -7 -6 -4 -3 -1 -0 1 4 7 9 8 6 5 3 2 0 -0 -2 -0 6 17 28 31 32 33 35 36
11 10 9 8 6 5 4 3 2 1 1 1 2 2 3 3 4 4 4 4 5 5 5 6 6 5 5 5 7 8 9 8 8 9 11 13 13 14 14 10 4 -0 -2 0 2 1 0 -1 1 4 7 8 8 8 6 5 4 4 3 2 7 18 30 39 40 40 41 42 40
15 13 12 11 10 8 7 5 4 3 2 2 2 3 4 5 5 5 4 4 4 4 4 4 5 5 5 4 5 6 7 8 8 8 10 13 14 15 15 15 11 7 5 6 8 8 5 2 2 4 6 7 8 8 7 6 6 6 6 5 15 28 40 45 42 40 39 37 34
20 18 16 15 13 11 10 9 7 6 5 4 4 4 5 6 6 7 7 7 6 5 4 3 3 4 4 4 5 5 6 6 7 8 9 10 15 15 15 19 19 16 13 13 14 14 12 7 4 4 5 7 8 10 10 8 7 5 5 6 17 28 36 33 26 21 19 17 16
24 22 20 18 17 15 13 12 11 10 9 8 7 6 5 5 7 8 9 9 9 9 7 5 4 4 4 5 5 5 4 5 5 6 8 9 13 15 16 19 22 22 21 19 21 21 19 19 13 9 8 9 12 13 13 12 9 6 5 7 13 17 14 4 -2 -4 -3 -2 1
25 25 24 22 20 18 17 15 14 14 13 12 10 9 7 6 6 7 9 11 13 13 11 9 7 5 5 5 5 5 4 4 4 5 7 8 11 16 20 19 21 24 25 22 25 23 22 23 23 20 16 14 15 17 18 17 12 8 7 8 10 6 -4 -17 -22 -22 -18 -13 -6
22 24 25 25 24 22 20 18 17 16 15 15 14 13 11 8 7 7 8 11 13 15 16 15 12 10 8 7 6 6 5 5 5 5 6 8 10 13 18 21 22 23 24 23 20 19 19 19 23 23 21 18 17 19 20 18 14 12 11 13 10 3 -8 -20 -27 -28 -24 -18 -10
19 20 22 24 25 24 22 21 19 18 17 16 16 15 14 13 10 9 8 9 12 14 17 19 19 16 13 10 9 8 8 7 6 6 5 6 7 9 13 19 21 21 20 20 20 18 15 14 15 16 16 17 17 17 17 17 16 16 17 18 13 6 -3 -13 -18 -19 -17 -12 -5
18 18 19 22 23 24 24 23 21 19 18 17 16 16 16 16 14 12 10 9 11 13 17 21 23 21 18 16 13 11 10 10 9 7 5 4 5 7 10 12 13 15 17 19 19 18 16 14 12 10 9 10 10 11 12 13 16 18 19 18 15 9 3 -4 -8 -8 -6 -2 4
20 18 18 19 21 23 23 23 22 21 19 18 16 16 16 16 15 13 11 10 10 12 14 15 21 23 23 19 17 14 13 12 11 8 6 4 4 6 8 9 7 10 14 19 19 18 16 13 11 9 8 7 7 6 6 8 12 14 15 15 13 11 8 4 0 -2 -2 1 8
22 19 18 18 20 21 23 23 23 22 21 20 18 16 15 15 15 14 12 11 11 12 13 15 16 19 22 22 21 18 16 14 13 10 8 6 5 6 8 9 6 6 9 15 16 16 15 14 13 13 12 12 11 8 5 3 5 7 8 10 11 12 12 10 7 3 1 1 7
24 21 18 17 19 20 22 23 22 22 22 21 20 18 16 15 14 13 12 11 11 11 13 15 13 14 17 22 23 21 18 16 14 13 11 9 7 7 8 10 7 4 3 6 9 10 11 12 13 15 16 14 11 9 6 2 1 1 3 6 9 11 13 13 11 7 4 2 5
25 23 20 17 18 20 21 22 22 22 22 22 21 20 18 16 14 12 11 10 10 10 12 13 15 16 17 18 22 23 21 19 17 15 13 11 9 8 8 10 9 6 1 -4 -2 1 4 6 8 10 12 14 12 10 7 3 1 0 1 3 6 8 10 11 10 8 6 3 4
25 23 21 18 18 19 20 21 21 21 21 21 21 21 20 19 16 13 11 9 9 9 10 12 12 13 15 17 20 23 23 22 19 17 15 12 10 9 8 10 10 7 2 -6 -10 -8 -4 -2 -1 1 4 9 12 12 9 4 1 0 -0 1 3 5 6 7 6 6 6 5 5
24 24 22 19 18 18 20 21 21 20 20 20 20 21 21 21 19 16 13 10 8 8 8 10 11 11 13 17 19 22 24 24 21 18 16 13 11 9 8 9 9 8 5 -3 -11 -12 -10 -8 -8 -7 -4 1 8 11 11 7 3 -0 -2 -2 -2 -0 1 2 2 2 3 3 5
24 23 22 19 18 18 19 20 20 20 19 19 20 20 21 21 20 18 16 13 10 8 8 9 10 11 12 16 18 21 24 25 23 20 17 15 13 10 9 8 8 8 6 1 -8 -12 -13 -11 -11 -10 -9 -6 1 8 12 11 6 2 -2 -4 -6 -7 -6 -4 -3 -3 -2 -2 0
24 23 21 19 18 18 19 20 20 19 19 18 19 20 20 21 20 19 18 16 13 10 8 8 8 9 12 15 17 20 23 24 24 22 19 17 14 12 10 8 8 7 6 3 -4 -10 -14 -14 -13 -12 -10 -9 -4 2 8 12 9 6 2 -2 -6 -9 -11 -11 -9 -8 -7 -6 -4
25 23 21 19 18 18 19 20 20 19 18 18 18 19 20 20 20 19 18 17 15 13 11 9 8 8 10 13 17 20 23 24 25 24 22 18 16 13 11 9 8 7 6 4 -2 -7 -13 -17 -17 -16 -15 -12 -10 -5 1 8 11 10 7 4 0 -4 -9 -13 -13 -11 -9 -6 -3
25 23 21 19 18 18 19 20 20 18 17 17 18 18 19 20 20 20 19 17 16 15 14 12 10 9 10 12 16 19 22 23 26 26 24 21 18 15 13 11 11 10 9 6 2 -4 -9 -13 -15 -17 -18 -16 -14 -11 -6 1 8 12 13 12 9 5 -1 -7 -10 -10 -8 -4 0
26 23 20 18 18 18 19 20 20 18 17 16 17 17 18 19 20 20 19 18 17 16 15 14 13 12 12 13 15 19 22 22 25 27 27 24 21 17 14 13 14 14 13 11 8 2 -3 -6 -7 -10 -13 -15 -14 -13 -10 -6 1 7 13 16 17 15 10 4 -1 -5 -6 -4 1
25 22 20 18 18 19 20 21 19 18 16 15 16 17 17 18 19 20 19 18 17 16 15 15 14 13 13 14 15 18 20 22 23 25 27 27 25 21 17 15 16 16 16 16 13 10 5 2 4 3 -1 -6 -8 -8 -8 -7 -3 2 7 12 15 18 19 17 13 8 4 2 2
23 21 19 18 18 20 21 21 19 17 16 15 15 16 17 18 18 19 19 18 17 16 15 14 14 14 14 14 15 17 19 20 21 23 25 26 26 24 21 19 19 18 18 18 17 15 11 7 11 15 16 11 6 2 0 -1 -1 0 2 6 9 12 16 20 20 19 17 13 10
21 19 18 18 19 20 21 20 18 17 15 14 15 15 16 16 17 18 18 18 17 16 14 13 13 13 13 13 15 17 18 20 20 20 20 22 23 22 22 22 23 22 22 20 19 18 15 10 11 17 23 23 19 16 14 12 8 5 3 3 4 6 9 12 15 17 18 18 16
19 18 17 18 20 20 20 19 17 15 14 14 14 15 15 16 16 16 16 16 16 14 13 12 12 11 12 12 13 16 18 19 19 19 18 17 18 18 18 18 21 23 25 25 24 22 18 14 12 17 23 28 24 22 21 21 18 14 10 6 5 4 5 6 7 8 10 12 13
17 17 17 19 20 20 19 17 15 14 13 14 14 14 14 15 15 15 15 15 14 13 13 12 11 11 11 11 12 14 16 17 18 18 17 16 15 14 13 13 14 17 21 25 27 27 24 21 17 18 22 29 26 23 21 21 21 20 18 16 12 9 6 5 4 4 4 5 6
17 17 18 19 19 18 17 15 13 13 13 13 14 14 14 14 14 14 14 13 13 13 12 11 11 10 10 11 12 13 14 15 16 17 16 15 14 13 11 9 8 9 11 16 20 23 25 24 21 19 20 25 25 23 20 20 19 19 19 19 18 16 13 10 7 4 3 2 2
17 18 18 19 18 17 15 13 12 12 12 13 13 14 14 14 14 13 13 13 13 12 11 11 10 10 10 10 10 11 12 14 14 15 15 15 14 13 11 8 6 4 4 6 9 12 14 17 17 16 16 18 21 20 18 17 17 17 16 17 17 18 17 16 13 10 8 7 6
18 18 18 18 17 15 13 12 11 11 11 12 13 14 14 14 14 14 13 13 12 12 11 11 10 10 10 10 10 10 11 12 13 14 15 15 14 13 12 10 7 5 3 2 2 3 5 6 7 7 8 9 13 15 16 14 15 15 14 14 15 15 16 16 16 15 14 13 13
18 18 18 17 15 13 12 10 10 10 11 12 13 13 14 15 15 14 14 14 13 13 12 11 10 10 9 9 9 9 9 10 12 13 14 15 15 15 13 12 10 8 6 4 4 4 4 4 4 4 4 4 8 12 15 15 15 15 14 14 14 14 15 16 16 16 16 16 16
18 17 16 15 13 12 11 10 10 10 10 11 12 13 14 15 15 15 15 15 14 14 14 13 11 10 9 9 8 8 8 9 10 12 13 14 15 16 15 14 13 12 10 10 10 9 9 9 8 7 6 6 8 12 15 17 17 16 16 15 15 15 15 16 16 16 16 16 16
17 16 15 14 13 11 10 10 9 9 10 10 12 13 14 14 15 15 15 16 16 15 15 14 13 12 11 10 9 9 8 9 10 10 12 13 14 15 16 16 15 14 14 13 13 13 13 13 12 11 11 10 11 13 16 18 18 17 16 16 16 15 15 15 15 15 15 15 16
16 15 14 13 12 11 10 9 9 9 10 10 11 12 13 14 14 14 15 16 17 17 16 16 15 14 13 12 11 10 9 9 9 10 10 11 12 13 14 15 15 16 16 15 15 15 14 14 13 13 13 13 13 14 15 16 16 16 16 16 16 16 15 15 15 14 14 14 14
16 15 14 13 12 11 11 10 10 10 10 10 11 12 12 13 13 13 14 16 17 18 18 18 17 16 14 13 12 11 11 10 10 10 10 10 11 11 12 13 14 14 15 15 15 15 14 14 14 13 13 14 14 14 14 14 14 14 14 14 14 14 14 14 14 13 13 13 13
14 14 14 14 13 12 12 11 11 11 11 12 12 12 12 13 12 12 13 14 16 18 20 21 20 18 17 16 14 13 12 11 11 10 10 10 10 10 11 11 12 12 12 13 13 13 13 13 13 13 13 13 13 13 13 13 13 13 13 13 13 13 13 13 13 12 12 12 11
13 13 14 14 13 13 13 12 12 13 13 13 13 13 13 13 12 12 12 12 14 16 19 21 21 21 20 18 17 16 14 13 12 12 11 11 11 11 11 11 11 11 11 11 11 12 12 12 12 12 12 12 12 12 11 11 11 11 12 12 12 12 12 12 11 11 11 11 11
11 12 12 12 13 13 13 13 13 13 13 13 13 13 13 13 13 12 12 11 12 13 15 18 19 20 21 20 19 18 17 16 14 13 12 12 11 11 11 11 11 11 11 11 11 11 11 11 11 12 12 12 12 11 11 11 10 10 11 11 11 11 11 11 11 11 11 11 11
10 10 10 10 11 11 11 12 12 12 12 12 13 13 13 13 13 12 12 11 11 12 12 13 15 17 19 20 20 19 19 18 16 15 14 13 12 12 11 11 11 11 11 11 11 11 11 11 11 12 12 12 12 12 12 11 11 11 11 11 11 11 11 11 11 11 11 11 11
9 8 8 9 9 9 10 10 10 10 11 11 11 12 12 12 12 12 12 12 11 11 11 11 12 13 15 16 17 18 18 18 18 17 16 15 14 13 12 12 12 12 12 12 11 11 11 11 11 11 12 12 12 12 12 12 12 11 11 11 11 11 11 11 11 11 11 11 11
9 8 8 8 8 8 8 9 9 9 10 10 10 11 11 11 12 12 12 12 12 12 11 11 11 12 12 13 14 15 16 16 16 17 16 16 16 15 14 13 13 13 13 13 12 12 12 12 12 11 11 12 12 12 12 12 12 12 12 12 11 11 11 10 10 10 10 10 10
Height
5625 5627 5629 5631 5633 5634 5636 5637 5638 5640 5641 5643 5645 5646 5648 5650 5651 5653 5655 5656 5658 5659 5661 5664 5666 5668 5670 5672 5674 5675 5677 5679 5681 5682 5684 5686 5687 5689 5690 5691 5691 5692 5693 5694 5695 5697 5699 5701 5702 5704 5705 5705 5706 5706 5707 5709 5710 5712 5713 5713 5714 5714 5714 5714 5714 5715 5715 5716 5715
5620 5622 5624 5626 5628 5630 5632 5633 5635 5636 5637 5639 5640 5642 5644 5646 5648 5649 5651 5652 5654 5655 5657 5660 5662 5665 5666 5668 5670 5672 5674 5676 5678 5680 5681 5683 5684 5685 5687 5688 5688 5689 5690 5690 5692 5694 5696 5698 5700 5701 5701 5702 5703 5704 5705 5706 5707 5709 5711 5711 5711 5711 5711 5710 5711 5711 5711 5711 5711
5615 5617 5619 5621 5624 5625 5627 5629 5630 5632 5633 5635 5636 5638 5640 5642 5644 5645 5647 5648 5650 5652 5654 5657 5659 5661 5662 5664 5666 5668 5670 5672 5674 5676 5679 5680 5681 5683 5684 5685 5686 5686 5686 5687 5688 5690 5693 5695 5697 5697 5698 5699 5700 5701 5702 5703 5705 5706 5708 5709 5710 5709 5708 5707 5707 5707 5707 5707 5707
5610 5612 5615 5617 5619 5621 5622 5624 5625 5627 5629 5630 5632 5634 5636 5637 5639 5641 5643 5644 5646 5648 5650 5653 5655 5657 5658 5660 5662 5664 5666 5669 5671 5673 5675 5677 5678 5679 5680 5682 5683 5684 5684 5684 5685 5686 5688 5691 5693 5694 5694 5695 5696 5698 5700 5701 5702 5704 5705 5705 5706 5707 5707 5706 5706 5706 5706 5706 5706
5605 5607 5609 5611 5614 5615 5617 5619 5621 5622 5624 5626 5628 5630 5632 5633 5635 5637 5639 5640 5642 5645 5646 5649 5651 5653 5654 5656 5658 5660 5662 5665 5667 5670 5672 5674 5675 5676 5677 5679 5680 5682 5682 5682 5683 5683 5685 5687 5690 5691 5692 5692 5693 5695 5697 5700 5700 5701 5702 5703 5704 5704 5705 5705 5704 5704 5704 5705 5705
5600 5602 5604 5606 5608 5610 5612 5614 5616 5618 5619 5621 5624 5625 5627 5629 5630 5632 5634 5636 5638 5640 5642 5645 5647 5649 5650 5652 5654 5657 5659 5662 5664 5666 5669 5670 5672 5673 5674 5675 5677 5679 5680 5681 5681 5682 5683 5685 5686 5688 5690 5691 5692 5693 5694 5696 5698 5699 5700 5701 5702 5702 5701 5701 5701 5701 5701 5702 5703
5595 5597 5599 5601 5603 5605 5607 5609 5611 5613 5615 5617 5619 5621 5623 5624 5626 5628 5630 5631 5633 5636 5639 5641 5643 5645 5646 5648 5650 5653 5655 5658 5660 5663 5666 5668 5669 5670 5671 5672 5674 5676 5678 5679 5680 5680 5681 5682 5684 5686 5688 5689 5690 5690 5691 5693 5695 5697 5698 5699 5700 5701 5701 5700 5700 5700 5700 5701 5702
5590 5592 5594 5596 5598 5600 5602 5604 5606 5608 5610 5612 5615 5616 5618 5620 5622 5624 5625 5627 5629 5632 5634 5637 5639 5640 5641 5644 5646 5649 5652 5654 5657 5660 5662 5664 5667 5668 5669 5670 5671 5672 5674 5676 5677 5678 5679 5680 5682 5684 5685 5687 5688 5688 5689 5690 5692 5694 5696 5697 5698 5699 5699 5698 5698 5698 5698 5699 5700
5585 5587 5589 5590 5593 5595 5597 5599 5601 5603 5605 5608 5609 5611 5613 5615 5618 5620 5621 5624 5625 5627 5629 5632 5634 5636 5638 5640 5642 5645 5648 5650 5653 5656 5658 5660 5663 5665 5667 5668 5668 5669 5671 5672 5674 5675 5676 5677 5678 5680 5682 5683 5685 5685 5686 5687 5689 5690 5692 5693 5695 5696 5696 5696 5696 5696 5696 5697 5699
5580 5582 5584 5586 5588 5590 5592 5594 5596 5599 5601 5603 5605 5606 5609 5611 5613 5615 5617 5619 5621 5622 5625 5628 5630 5632 5633 5635 5638 5642 5645 5646 5649 5651 5654 5657 5659 5662 5664 5666 5666 5667 5668 5669 5670 5672 5673 5673 5674 5676 5678 5680 5681 5683 5684 5685 5686 5687 5689 5690 5692 5693 5693 5693 5693 5693 5694 5695 5696
5575 5577 5579 5581 5583 5585 5587 5589 5591 5594 5596 5598 5600 5602 5604 5607 5609 5611 5613 5615 5617 5619 5621 5624 5625 5627 5629 5630 5634 5638 5641 5643 5644 5646 5650 5652 5655 5658 5661 5663 5664 5665 5665 5666 5667 5669 5670 5670 5671 5672 5674 5676 5679 5680 5681 5682 5684 5685 5686 5687 5688 5689 5690 5690 5691 5691 5691 5692 5693
5571 5573 5575 5576 5578 5580 5582 5585 5587 5589 5591 5593 5595 5598 5600 5602 5604 5606 5609 5611 5613 5615 5617 5619 5621 5623 5624 5626 5630 5633 5636 5639 5640 5641 5644 5648 5652 5655 5657 5660 5661 5662 5662 5663 5664 5665 5666 5667 5668 5669 5671 5673 5675 5677 5678 5680 5681 5682 5683 5684 5685 5685 5687 5688 5689 5689 5689 5689 5690
5567 5568 5570 5572 5574 5576 5578 5580 5582 5584 5586 5589 5591 5593 5595 5598 5600 5602 5605 5607 5609 5611 5612 5614 5617 5619 5620 5622 5625 5629 5631 5633 5635 5637 5640 5644 5648 5651 5653 5656 5658 5659 5660 5660 5660 5661 5662 5663 5664 5665 5667 5670 5671 5673 5675 5677 5678 5679 5680 5681 5682 5682 5683 5685 5685 5686 5687 5687 5688
5563 5564 5566 5568 5570 5572 5574 5576 5578 5580 5582 5584 5586 5588 5590 5593 5595 5598 5601 5603 5605 5606 5608 5610 5613 5615 5617 5618 5620 5623 5626 5628 5630 5633 5636 5639 5643 5646 5649 5652 5654 5655 5656 5656 5656 5657 5658 5659 5660 5661 5663 5665 5667 5669 5670 5673 5674 5675 5676 5678 5678 5679 5680 5681 5682 5683 5684 5685 5685
5559 5560 5562 5564 5565 5568 5570 5572 5573 5575 5577 5580 5581 5583 5586 5589 5591 5594 5596 5599 5600 5602 5605 5606 5609 5611 5613 5615 5616 5619 5621 5623 5625 5628 5631 5635 5638 5641 5644 5647 5650 5651 5652 5652 5652 5653 5654 5655 5656 5657 5659 5660 5663 5665 5667 5668 5670 5671 5673 5675 5675 5676 5676 5677 5678 5680 5680 5681 5683
5556 5557 5558 5560 5562 5564 5565 5567 5569 5571 5573 5575 5577 5579 5581 5584 5587 5589 5592 5595 5596 5598 5601 5603 5605 5608 5610 5612 5613 5614 5616 5619 5620 5623 5626 5629 5632 5635 5639 5642 5645 5646 5647 5647 5648 5648 5650 5651 5652 5654 5655 5656 5658 5660 5662 5664 5666 5668 5669 5671 5672 5673 5673 5674 5675 5676 5677 5678 5679
5552 5553 5555 5556 5558 5560 5562 5564 5565 5567 5569 5571 5573 5575 5577 5580 5582 5585 5588 5590 5592 5595 5597 5600 5602 5604 5606 5608 5609 5610 5612 5614 5616 5619 5621 5624 5627 5630 5634 5637 5639 5641 5643 5644 5644 5644 5645 5646 5648 5649 5650 5652 5654 5655 5658 5660 5662 5664 5665 5667 5668 5670 5670 5670 5671 5672 5673 5674 5675
5549 5550 5551 5553 5554 5556 5558 5560 5562 5564 5565 5567 5569 5571 5573 5576 5578 5581 5584 5586 5588 5590 5593 5595 5598 5600 5602 5604 5605 5607 5608 5610 5612 5615 5617 5619 5622 5625 5628 5631 5633 5636 5638 5639 5640 5640 5641 5642 5644 5645 5646 5648 5649 5651 5653 5655 5657 5659 5661 5663 5665 5666 5666 5667 5668 5669 5670 5671 5672
5545 5546 5547 5549 5551 5553 5555 5556 5558 5560 5562 5564 5566 5568 5570 5572 5575 5577 5580 5582 5584 5587 5589 5591 5593 5595 5598 5600 5602 5603 5605 5606 5608 5610 5613 5615 5617 5620 5623 5625 5628 5630 5632 5634 5635 5636 5637 5638 5640 5641 5642 5644 5645 5647 5649 5651 5653 5655 5657 5659 5660 5662 5663 5663 5664 5665 5666 5667 5668
5541 5543 5544 5546 5548 5550 5551 5553 5555 5557 5559 5560 5563 5565 5567 5569 5571 5574 5576 5579 5581 5583 5585 5587 5590 5592 5594 5596 5598 5600 5601 5603 5605 5606 5609 5611 5613 5616 5618 5620 5623 5625 5627 5629 5630 5631 5632 5634 5635 5637 5638 5640 5641 5643 5645 5647 5649 5650 5652 5654 5656 5658 5659 5660 5660 5661 5662 5663 5664
5538 5540 5541 5543 5545 5547 5549 5550 5552 5554 5556 5558 5560 5562 5564 5565 5568 5570 5573 5575 5577 5579 5582 5584 5586 5588 5590 5592 5594 5596 5598 5600 5601 5603 5605 5607 5609 5611 5613 5615 5618 5620 5622 5624 5625 5626 5628 5629 5630 5632 5634 5635 5637 5639 5640 5642 5645 5646 5648 5650 5651 5653 5655 5656 5657 5658 5659 5660 5660
5535 5537 5539 5541 5542 5544 5546 5548 5550 5551 5553 5555 5557 5559 5561 5563 5565 5567 5570 5571 5574 5576 5578 5580 5582 5585 5587 5589 5590 5592 5594 5596 5598 5599 5601 5603 5605 5607 5609 5611 5613 5615 5617 5619 5620 5622 5623 5624 5626 5627 5629 5631 5633 5635 5636 5638 5640 5642 5644 5645 5647 5649 5650 5652 5653 5654 5655 5655 5656
5533 5535 5537 5538 5540 5542 5544 5545 5547 5549 5551 5553 5555 5556 5558 5560 5562 5564 5566 5569 5571 5573 5575 5577 5579 5581 5583 5585 5586 5589 5590 5593 5595 5596 5598 5600 5601 5603 5605 5607 5609 5611 5613 5614 5616 5617 5619 5620 5621 5623 5625 5626 5628 5630 5632 5634 5636 5637 5639 5641 5642 5644 5645 5647 5648 5650 5650 5651 5652
5531 5533 5535 5536 5538 5540 5542 5543 5545 5547 5549 5551 5552 5554 5556 5557 5559 5561 5563 5565 5567 5569 5571 5573 5575 5577 5579 5581 5583 5585 5587 5589 5591 5593 5595 5597 5599 5600 5602 5604 5605 5607 5608 5610 5611 5613 5615 5616 5617 5618 5620 5622 5623 5625 5627 5629 5631 5633 5635 5636 5638 5639 5641 5642 5644 5645 5646 5647 5648
5530 5531 5533 5535 5536 5538 5540 5542 5543 5545 5547 5549 5550 5552 5553 5555 5557 5559 5560 5562 5564 5566 5568 5570 5572 5574 5576 5578 5580 5581 5583 5585 5588 5590 5592 5594 5595 5597 5599 5601 5602 5603 5604 5605 5607 5609 5610 5611 5612 5614 5615 5617 5619 5620 5622 5624 5626 5628 5630 5631 5633 5635 5636 5638 5639 5640 5641 5643 5644
5529 5530 5532 5533 5535 5536 5538 5540 5542 5543 5545 5546 5548 5550 5551 5553 5554 5556 5558 5560 5561 5563 5565 5567 5568 5570 5572 5574 5576 5578 5580 5582 5584 5586 5588 5590 5592 5594 5596 5598 5599 5600 5601 5602 5603 5605 5606 5607 5608 5610 5611 5613 5615 5616 5618 5620 5621 5623 5625 5626 5628 5630 5631 5633 5634 5635 5637 5638 5639
5527 5529 5530 5532 5533 5535 5536 5538 5540 5541 5543 5545 5546 5548 5549 5550 5552 5554 5555 5557 5558 5560 5562 5564 5565 5567 5569 5571 5573 5575 5577 5579 5580 5582 5584 5586 5588 5590 5592 5594 5595 5596 5597 5598 5600 5601 5602 5603 5605 5605 5607 5608 5610 5612 5614 5615 5617 5618 5620 5622 5623 5625 5627 5628 5630 5631 5632 5634 5635
5527 5528 5529 5530 5532 5534 5535 5537 5538 5540 5541 5543 5544 5545 5547 5549 5550 5552 5553 5554 5556 5557 5559 5560 5562 5564 5566 5568 5570 5571 5573 5575 5577 5579 5581 5582 5584 5586 5587 5589 5590 5592 5593 5595 5596 5597 5598 5599 5600 5602 5603 5604 5606 5608 5609 5611 5612 5614 5615 5617 5619 5620 5622 5624 5625 5626 5628 5629 5630
5526 5527 5528 5530 5531 5532 5534 5535 5537 5538 5540 5541 5542 5544 5545 5547 5548 5550 5551 5552 5554 5555 5557 5558 5559 5561 5563 5565 5567 5568 5570 5572 5574 5576 5577 5579 5581 5582 5584 5585 5586 5588 5589 5590 5592 5593 5594 5595 5596 5598 5599 5600 5602 5603 5605 5606 5608 5610 5611 5612 5614 5615 5617 5619 5620 5622 5623 5625 5626
5525 5526 5527 5529 5530 5531 5533 5534 5536 5537 5538 5539 5540 5542 5543 5545 5546 5548 5549 5550 5552 5553 5554 5555 5557 5559 5560 5562 5564 5565 5567 5569 5571 5573 5575 5576 5578 5579 5580 5582 5583 5584 5585 5587 5588 5589 5590 5591 5592 5594 5595 5596 5598 5599 5601 5602 5604 5605 5607 5608 5610 5611 5613 5614 5615 5617 5619 5620 5621
5525 5525 5527 5528 5530 5531 5532 5533 5534 5535 5537 5538 5539 5540 5542 5543 5545 5546 5547 5548 5550 5551 5552 5554 5555 5556 5558 5559 5560 5562 5564 5566 5567 5569 5571 5572 5574 5575 5577 5578 5580 5581 5582 5584 5585 5586 5587 5588 5589 5590 5591 5593 5594 5595 5597 5598 5600 5601 5603 5604 5605 5607 5608 5610 5611 5613 5614 5615 5617
5524 5525 5526 5527 5529 5530 5531 5532 5533 5534 5535 5536 5537 5539 5540 5541 5543 5544 5545 5546 5548 5549 5550 5551 5553 5554 5555 5556 5558 5560 5561 5562 5564 5566 5567 5569 5571 5572 5573 5575 5576 5578 5579 5580 5582 5583 5584 5585 5586 5587 5588 5589 5590 5592 5593 5595 5596 5597 5599 5600 5601 5603 5604 5605 5607 5608 5610 5611 5612
5523 5524 5525 5526 5528 5529 5530 5531 5532 5533 5534 5535 5536 5537 5538 5539 5540 5542 5543 5544 5545 5547 5548 5549 5550 5551 5553 5554 5555 5557 5558 5560 5561 5562 5564 5565 5567 5569 5570 5571 5573 5574 5575 5577 5578 5580 5580 5582 5583 5584 5585 5586 5587 5588 5590 5591 5592 5593 5595 5596 5597 5599 5600 5601 5603 5604 5605 5607 5608
5522 5523 5525 5525 5527 5528 5529 5530 5531 5532 5533 5534 5535 5535 5536 5538 5539 5540 5541 5542 5543 5545 5545 5547 5548 5549 5550 5551 5553 5554 5555 5557 5558 5559 5561 5562 5564 5565 5566 5568 5569 5570 5572 5573 5575 5576 5578 5579 5580 5580 5582 5583 5584 5585 5586 5587 5588 5590 5591 5592 5593 5595 5596 5597 5599 5600 5601 5602 5604
5521 5523 5524 5525 5526 5527 5528 5529 5530 5531 5531 5532 5533 5534 5535 5536 5537 5538 5539 5540 5541 5542 5543 5544 5545 5547 5548 5549 5550 5551 5553 5554 5555 5556 5558 5559 5560 5562 5563 5564 5565 5567 5568 5570 5571 5573 5574 5575 5576 5578 5579 5579 5580 5581 5583 5584 5585 5586 5587 5588 5589 5590 5592 5593 5595 5596 5597 5598 5600
5520 5521 5523 5524 5525 5526 5527 5528 5529 5530 5530 5531 5532 5533 5534 5535 5535 5536 5536 5537 5538 5540 5540 5542 5543 5544 5545 5546 5548 5549 5550 5551 5552 5554 5555 5556 5557 5559 5560 5561 5562 5563 5565 5566 5567 5569 5570 5571 5573 5574 5575 5576 5577 5578 5579 5580 5581 5582 5584 5585 5586 5587 5588 5589 5590 5592 5593 5595 5596
5520 5520 5521 5522 5523 5524 5525 5526 5527 5528 5529 5530 5530 5531 5532 5533 5534 5534 5535 5535 5536 5537 5538 5539 5540 5541 5543 5544 5545 5546 5547 5548 5549 5550 5552 5553 5554 5555 5557 5558 5559 5560 5561 5563 5564 5565 5566 5568 5569 5570 5571 5572 5573 5575 5576 5577 5578 5579 5580 5581 5582 5584 5585 5586 5587 5588 5590 5591 5592
5518 5519 5520 5521 5522 5523 5524 5525 5525 5526 5527 5528 5529 5530 5530 5531 5532 5532 5533 5533 5534 5535 5536 5537 5538 5539 5540 5541 5542 5543 5544 5545 5546 5548 5549 5550 5551 5552 5554 5555 5556 5557 5558 5560 5561 5562 5563 5564 5565 5566 5568 5569 5570 5571 5572 5574 5575 5576 5577 5578 5579 5580 5581 5582 5584 5585 5586 5587 5588
5517 5518 5519 5520 5520 5521 5522 5523 5524 5525 5525 5526 5527 5528 5528 5529 5530 5530 5531 5531 5532 5533 5534 5535 5535 5536 5537 5538 5539 5540 5541 5542 5544 5545 5546 5547 5548 5550 5551 5552 5553 5554 5555 5557 5558 5559 5560 5561 5562 5564 5565 5566 5567 5568 5569 5570 5572 5573 5574 5575 5576 5577 5578 5579 5580 5581 5582 5583 5584
5515 5516 5517 5518 5519 5520 5520 5521 5522 5523 5523 5524 5525 5526 5526 5527 5528 5528 5529 5530 5530 5531 5532 5533 5533 5534 5535 5536 5537 5538 5539 5540 5541 5542 5543 5545 5545 5547 5548 5549 5550 5551 5553 5554 5555 5556 5557 5558 5559 5560 5562 5563 5564 5565 5566 5567 5569 5570 5571 5572 5573 5574 5575 5576 5577 5578 5579 5580 5581
5514 5515 5515 5516 5517 5518 5519 5519 5520 5521 5521 5522 5523 5524 5524 5525 5526 5526 5527 5528 5529 5530 5530 5531 5532 5532 5533 5534 5535 5536 5537 5538 5539 5540 5541 5542 5543 5544 5545 5546 5548 5549 5550 5551 5552 5553 5554 5555 5556 5557 5559 5560 5561 5562 5563 5565 5566 5567 5568 5569 5570 5571 5572 5573 5574 5575 5576 5577 5578